Showing default

CANX-4, 40055

Orbit data source: Space-Track

CANX-4, 40055 is a payload satellite owned by UTIAS-SFL (CA) in SSO that was launched on Mon, 30 Jun 2014 UTC via a PSLV launch vehicle from the Sirharikota (SRI). Payload-class satellites include a variety of spacecraft equipped with specific instruments for various scientific and technological missions. These include communications satellites like Starlink; space stations such as the ISS; scientific satellites like the Hubble; Earth observation satellites from companies like Planet Labs, Umbra, and HawkEye 360; GPS; miniature CubeSats for education and research; and military/defense satellites.

Loading next visibility...
Identifier
40055, 2014-034C
Orbit
SSO
Last TLE update
9 hours ago
Origin
Manufacturer
UTIAS-SFL
Mission
Operational Amateur Technology
Bus & Motor
GNB, Unknown motor
Mass
7 kg wet, 7 kg dry
Launch date (UTC)
2014-06-30 (11 years ago)
Launch vehicle
PSLV
Launch site
Sirharikota (SRI)
Object type
Payload
Rocket body
Debris
Shape & HBR
Box + 4 Ant, 0.2 m
Radar Cross Section
0.060 m², Medium (>0.1 m² and < 1m²)

Expand to show TLE details & history

TLE from 9 hours ago
0 CANX-4
1 40055U 14034C   25187.58870195  .00000785  00000-0  11057-3 0  9999
2 40055  98.3600  44.4240 0013949  45.0988 315.1352 14.80269251593386
Epoch: 2025-07-06T14:07Z
TLE epoch observation values (Epoch: 2025-07-06T14:07:43.848Z)
Latitude
-0.00006°
Longitude
-92.31892°
Altitude
624.56 km
Speed
7.55 km/s
True Right ascension
02h 57m 41s
True Declination
0° 00' 00"
Sunlit
Object was in daylight at epoch
Visualization orbit readout
Latitude
50.80905°
Longitude
98.38486°
Altitude
635.692 km
Speed
7.546 km/s
Apparent Right ascension
19h 30m 07s
Apparent Declination
13° 34' 54"
Sunlit
Object is in daylight
Visualization observer readout
Local Sidereal Time
10:49:15
Azimuth
51.862° ENE
Elevation
-19.31°
Doppler factor
1
Orbital elements
Apogee altitude
635.305 km
Perigee altitude
615.767 km
Semi-major axis
7,003.673 km
Eccentricity
0.00139
Inclination
98.36°
RAAN
44.424°
Arg. of periapsis
45.0988°
True anomaly
Unknown
Mean anomaly
315.1352°
Eccentric anomaly
Unknown
Mean motion
3.70301 °/min
Orbital period
97.22 mins
BSTAR
0.00011057
Loading maneuver chart data...
Loading SW <> Apogee altitude chart data...
Loading historical data...
Loading historical data...
Loading historical data...
Loading historical data...
Loading historical data...
Loading historical data...
Loading historical data...
Other satellites on launch #34 in the year 2014 (2014-06-30 UTC)

CANX-4 Visibility forecast

Observer location: undefined°, undefined°

Span
Click to sort rows by Start time (UTC) header in descending order
Start Az.
Max El. time (UTC)
Max El. Az.
Max El.
End time (UTC)
End Az.
7 mins2025-07-07 03:41:04.151Z359.469° N2025-07-07 03:44:04.151Z271.181° WNW40.136°2025-07-07 03:48:04.151Z207.92° SW
7 mins2025-07-07 14:35:04.151Z173.016° S2025-07-07 14:39:04.151Z309.264° NW42.234°2025-07-07 14:42:04.151Z341.837° N
|